Location: Wagman Observatory
(40.6260°N, 79.8130°W)
Time: 20:18:23
(UTC-04:00)

Daily predictions for brighter satellites

Satellite Brightness Start Highest point End
(mag) Time Altitude Azimuth Time Altitude Azimuth Time Altitude Azimuth
USA 234 4.3 21:00:45 10° E 21:06:42 38° NNE 21:12:40 10° NW
Envisat 4.0 21:03:44 10° SE 21:08:06 30° ENE 21:12:29 10° N
Cosmos 1110 Rocket 4.1 21:04:20 10° NNW 21:09:40 82° ENE 21:14:55 10° SSE
USA 186 2.2 21:10:51 10° S 21:13:42 52° W 21:16:23 10° NNW
Abrixas rocket 2.5 21:11:21 10° NW 21:14:46 67° NNE 21:18:10 10° ESE
Meteor 2-4 Rocket 3.9 21:09:45 10° S 21:15:31 65° E 21:21:24 10° NNE
Cosmos 2333 Rocket 3.9 21:12:18 10° SW 21:17:35 40° WNW 21:22:54 10° N
Okean 2 3.5 21:13:44 10° S 21:17:50 58° E 21:21:58 10° NNE
Meteor 1-19 Rocket 4.3 21:12:17 10° S 21:17:55 88° W 21:23:32 10° N
BREEZE M DEB (TANK) 2.7 21:15:41 10° WNW 21:19:17 40° N 21:21:12 10° ENE
Cosmos 2297 3.8 21:13:50 10° NNW 21:19:34 85° WSW 21:25:17 10° SSE
FENGYUN 3A 4.3 21:21:43 10° S 21:27:00 59° W 21:32:20 10° NNW
Cosmos 1726 Rocket 3.9 21:23:03 10° NNW 21:27:30 71° W 21:31:52 10° S
H-2A R/B 3.9 21:25:47 10° S 21:29:34 44° W 21:33:23 10° NNW
PSLV R/B 3.9 21:29:01 10° SW 21:32:19 38° SSE 21:35:39 10° E
ISS -1.8 21:30:20 10° S 21:32:37 18° SE 21:34:54 10° E
Cosmos 2285 Rocket 4.1 21:28:15 10° NNW 21:34:36 87° WSW 21:40:58 10° SSE
Cosmos 1461 3.2 21:34:39 10° NNW 21:38:54 54° NE 21:42:09 15° SE
CZ-2C R/B 2.0 21:37:22 10° SSW 21:39:30 33° W 21:41:39 10° NNW
Cosmos 494 Rocket 4.3 21:34:36 10° SSW 21:39:42 72° WNW 21:44:49 10° NNE
SPOT 5 3.0 21:36:20 12° SE 21:40:17 48° ENE 21:44:28 10° N
Cosmos 2058 Rocket 3.4 21:36:51 10° NNW 21:41:12 65° W 21:45:30 10° S
Cosmos 1464 Rocket 4.1 21:39:12 10° N 21:45:20 83° W 21:51:31 10° S
Cosmos 1602 Rocket 3.6 21:42:03 10° S 21:46:27 63° E 21:50:53 10° NNE
CZ-4 SHROUD 3.3 21:46:44 16° SSE 21:49:06 62° ENE 21:52:15 10° N
H-2A R/B 4.0 21:48:33 10° E 21:51:05 14° ENE 21:53:39 10° NNE
ALOS 4.2 21:48:26 10° SSW 21:52:24 28° W 21:56:25 10° NW
GRACE-1 4.0 21:50:27 10° N 21:53:17 59° E 21:55:07 19° SSE
Aureole 2 Rocket 3.1 21:49:46 10° SSW 21:53:41 63° WNW 21:57:17 10° NNE
GRACE-2 4.0 21:50:54 10° N 21:53:45 59° E 21:55:33 20° SSE
deb Chang Zheng 4 4.3 21:49:39 10° N 21:53:59 57° WNW 21:58:15 10° SSW
Cosmos 1812 Rocket 3.8 21:53:07 10° N 21:57:26 54° E 22:00:27 19° SSE
Cosmos 2278 Rocket 4.5 21:55:13 10° NW 21:59:10 20° W 22:03:08 10° SW
SPOT 1/Viking Rocket 4.1 21:55:42 17° SE 21:59:16 43° ENE 22:04:08 10° N
Terra 3.8 22:00:40 12° E 22:02:59 16° ENE 22:05:48 10° NNE
Cosmos 2034 Rocket 4.1 21:57:32 10° N 22:03:56 80° W 22:10:15 10° S
Atlas Centaur 2 3.6 22:02:57 10° SW 22:09:50 36° SSE 22:15:35 17° ESE
USA 245 4.5 22:05:43 19° SE 22:10:04 57° ENE 22:15:14 10° N
H-2A R/B 3.4 22:06:14 10° SSW 22:10:08 36° W 22:14:09 10° NNW
SeaSat 1 2.5 22:07:21 19° SSE 22:10:58 82° WSW 22:15:56 10° NNW
Cosmos 2369 Rocket 3.1 22:08:01 10° N 22:13:15 37° ENE 22:16:29 20° ESE
ARGOS 3.6 22:10:34 21° SE 22:13:52 47° ENE 22:19:04 10° N
DEBRIS 2.7 22:10:23 10° WNW 22:14:47 46° SW 22:15:34 33° S
Cosmos 1666 4.2 22:12:58 10° NNW 22:16:33 36° W 22:20:08 10° SSW
CZ-4B R/B 3.4 22:12:56 10° NNE 22:18:01 73° ESE 22:22:53 12° S
PSLV R/B 4.0 22:16:10 20° SSW 22:18:02 47° W 22:21:04 10° NNW
SL-16 R/B 4.1 22:14:23 10° WSW 22:19:22 31° WNW 22:24:24 10° N
Cosmos 1626 Rocket 4.2 22:15:12 10° SSW 22:19:34 56° W 22:23:56 10° N
Cosmos 1939 Rocket 4.3 22:17:44 10° SSW 22:21:33 36° W 22:25:25 10° NNW
NOAA 11 4.4 22:22:44 25° SE 22:25:44 55° ENE 22:31:01 10° N
Milstar 3 Cent rocket 4.1 22:23:33 10° WSW 22:26:07 12° SSW 22:27:55 11° SSW
COSMOS 2455 2.8 22:20:55 10° SSW 22:26:56 83° ESE 22:32:58 10° NNE
Meteor 2-12 Rocket 4.4 22:22:15 10° N 22:28:22 88° E 22:32:34 21° S
MetOp-B 4.3 22:28:00 20° S 22:31:49 70° WSW 22:37:11 10° NNW
Cosmos 1953 4.4 22:31:51 10° NE 22:34:00 14° ENE 22:34:19 14° ENE
Lacrosse 5 rocket 4.5 22:31:38 10° WNW 22:34:03 15° NNW 22:36:33 10° NNE
Cosmos 1953 Rocket 3.8 22:35:33 36° SE 22:36:56 51° E 22:41:14 10° NNE
ATLAS 3B R/B 3.0 22:29:45 10° S 22:37:10 54° ESE 22:44:29 10° NE
Meteor 1-22 Rocket 4.5 22:32:02 10° N 22:37:30 54° ENE 22:40:02 31° SE
Cosmos 2346 Rocket 4.4 22:36:44 20° S 22:41:07 77° E 22:47:16 10° N
IGS 5A 4.5 22:43:55 29° E 22:44:41 31° ENE 22:48:22 10° N
Cosmos 1515 4.2 22:43:53 23° SSW 22:46:08 58° W 22:49:57 10° N
Envisat 4.5 22:42:41 11° SSW 22:47:01 31° W 22:51:32 10° NNW
Cosmos 1066 Rocket 4.2 22:43:48 23° S 22:47:29 83° E 22:53:19 10° N
USA 234 3.3 22:45:49 30° SE 22:49:22 75° SW 22:55:58 10° NW
Cosmos 407 Rocket 3.6 22:49:25 35° SSE 22:51:26 57° ESE 22:56:34 10° NNE
Abrixas rocket 4.3 22:49:10 10° W 22:51:25 18° SW 22:51:25 18° SW
Cosmos 1346 Rocket 2.6 22:56:00 57° S 22:56:44 83° ESE 23:00:40 10° N
DELTA 2 DEB (DPAF) 4.1 22:56:14 45° SSE 22:57:36 89° WSW 23:02:07 10° NNW
Cosmos-2242 3.9 22:53:54 10° N 22:57:56 34° ENE 22:58:21 33° E
SL-23 DEB 4.4 22:51:57 10° SSW 22:58:00 47° SE 22:58:26 45° ESE
Lacrosse 4 Rocket 1.3 22:59:12 59° ESE 22:59:15 59° ESE 23:03:17 10° NE
YAOGAN 6 4.2 23:02:20 24° SW 23:03:39 31° W 23:07:00 10° NNW
USA 81 4.5 23:00:11 10° NNW 23:05:23 59° W 23:08:02 28° SSW
ISS -2.4 23:05:37 10° WSW 23:08:48 49° NNW 23:11:59 10° NE
BREEZE-M DEB (TANK) 4.1 23:06:41 10° W 23:09:06 25° NNW 23:09:51 20° N
PSLV R/B 3.5 23:06:17 10° W 23:09:23 66° W 23:09:23 66° W
Cosmos 1954 Rocket 4.2 23:09:47 46° SE 23:10:27 48° ESE 23:15:33 10° NNE
Cosmos 1758 Rocket 3.5 23:10:06 50° SSW 23:11:13 82° W 23:15:36 10° N
USA 238 DEB 4.2 23:10:59 36° SE 23:11:57 38° ESE 23:18:20 10° NE
USA 238 4.2 23:11:09 36° SE 23:12:04 37° ESE 23:18:26 10° NE
Cosmos 1943 3.4 23:07:20 12° SSW 23:12:32 69° WNW 23:18:14 10° NNE
Cosmos 1842 3.5 23:13:33 56° ENE 23:13:33 56° ENE 23:17:08 10° NNE
Meteor 1-21 4.2 23:11:19 39° S 23:13:36 81° E 23:19:26 10° NNE
CARTOSAT-1 3.4 23:14:29 66° SSE 23:15:05 84° ENE 23:19:25 10° N
Cosmos 1758 4.0 23:15:16 10° N 23:19:02 43° ENE 23:19:02 43° ENE
Cosmos 1943 Rocket 2.6 23:16:42 10° NNW 23:22:07 51° ENE 23:23:31 41° ESE
Spot 4 3.7 23:22:16 61° SE 23:23:01 76° ENE 23:27:48 10° N
Spot 2 4.3 23:19:28 10° NNE 23:24:16 88° ESE 23:25:25 54° S
Landsat 7 4.1 23:23:17 45° SSW 23:24:26 58° W 23:29:08 10° NNW
H-2A R/B 2.0 23:28:49 54° SSW 23:29:51 71° WSW 23:34:54 10° NNW
SAR-Lupe-2 4.2 23:30:47 50° W 23:30:47 50° W 23:34:02 10° NNW
Cosmos 1092 Rocket 4.4 23:33:02 41° ESE 23:34:06 45° E 23:40:02 10° NNE
Cosmos 1766 3.7 23:30:20 10° NNW 23:34:16 55° W 23:34:21 55° W
Terra 2.1 23:39:33 52° SW 23:40:14 58° W 23:44:56 10° NNW
Cosmos 1842 Rocket 4.0 23:37:35 10° N 23:41:34 50° ENE 23:41:34 50° ENE
Cosmos 1570 Rocket 4.4 23:37:35 10° N 23:42:50 53° ENE 23:43:34 49° E
Cosmos 1850 Rocket 4.3 23:46:11 49° E 23:46:11 49° E 23:50:55 10° NNE
Nadezhda 4 Rocket 3.9 23:45:01 54° SSE 23:46:32 77° E 23:52:53 10° N
CZ-4C R/B 4.0 23:54:53 16° E 23:54:53 16° E 23:56:52 10° ENE
